Jones - eastern half: Past 24 Hour Conditions

 

Akulivik Airport

03:00 AM EDT 17 April 2014
This table is a summary of hourly weather conditions for the past 24 hours.
Date / Time
(EDT)
Wind(knots) Conditions Visibility(km) Pressure(kPa) Air tempC) Relative humidity(%) Dew pointC) Wind Chill
17 April 2014
3:00 WSW 16 N/A N/A 100.6 -17 89 -18 -28
2:00 SW 12 N/A N/A 100.7 -18 88 -19 -28
1:00 SW 15 gust 22 N/A N/A 100.7 -17 88 -19 -29
0:00 WSW 18 N/A N/A 100.7 -17 89 -18 -29
16 April 2014
23:00 WSW 18 N/A N/A 100.8 -17 89 -19 -29
22:00 WSW 18 N/A N/A 100.8 -17 89 -18 -29
21:00 W 18 N/A N/A 100.8 -16 85 -18 -28
20:00 W 22 gust 27 N/A N/A 100.8 -16 85 -18 -29
19:00 W 19 N/A N/A 100.9 -16 83 -18 -28
18:00 WNW 20 N/A N/A 100.8 -16 84 -18 -29
17:00 WNW 15 gust 20 Drifting Snow 23 101.0 -15 79 -18 -26
16:00 WNW 15 Mostly Cloudy 24 101.0 -14 76 -18 -25
15:00 NW 13 Cloudy 24 101.0 -14 66 -19 -24
14:00 NNW 9 Light Snow 15 100.9 -14 73 -18 -23
13:00 NNW 12 Light Snow 23 100.9 -15 72 -19 -24
12:00 NNW 13 Light Snow 23 101.0 -15 78 -18 -26
11:00 N 9 Ice Crystals 24 101.0 -17 76 -20 -26
10:00 NNW 8 Partly Cloudy 24 101.0 -19 73 -22 -28
9:00 calm Mainly Sunny 24 101.0 -21 76 -24 *
8:00 calm Ice Crystals 24 101.0 -22 81 -24 *
7:00 NNW 5 N/A N/A 100.9 -22 83 -24 -30
6:00 N 6 N/A N/A 100.9 -23 83 -25 -30
5:00 NNE 8 N/A N/A 100.9 -21 86 -23 -31
4:00 N 9 N/A N/A 101.0 -21 86 -23 -30
3:00 NNE 9 N/A N/A 101.0 -21 86 -22 -30
 
Map of Arctic - Eastern Arctic marine weather areas Baker Lake Airport Chesterfield Inlet Airport Coral Harbour Airport Gjoa Haven Airport Kugaaruk Airport Rankin Inlet Airport Shepherd Bay Airport Whale Cove Airport Arctic Bay Brevoort Island Qikiqtarjuaq Airport Cape Dorset Airport Cape Dyer Cape Hooper Clyde Airport Grise Fiord Airport Hall Beach Airport Igloolik Airport Iqaluit Airport Longstaff Bluff Pangnirtung Airport Pond Inlet Airport Repulse Bay Airport Resolute Airport Resolution Island Rowley Island Airport Taloyoak Airport Wager Bay Akulivik Airport Ivujivik Airport Puvirnituq Airport Kangiqsujuaq Airport Kangirsuk Airport Quaqtaq Airport Tasiujaq Airport Cape Kakkiviak Cape Kiglapait Nain Airport Saglek Cape Mercy Kimmirut Airport Aupaluk Airport Salluit Airport Kangiqsualujjuaq Airport Fort Ross
Legend: buoyBuoy land stationLand Station